TimePDT,TemperatureF,Dew PointF,Humidity,Sea Level PressureIn,VisibilityMPH,Wind Direction,Wind SpeedMPH,Gust SpeedMPH,PrecipitationIn,Events,Conditions,WindDirDegrees,DateUTC
12:52 AM,45.0,36.0,71,29.99,10.0,Calm,Calm,-,N/A,,Clear,0,2013-10-11 07:52:00
1:52 AM,46.0,34.0,63,29.99,10.0,Calm,Calm,-,N/A,,Clear,0,2013-10-11 08:52:00
2:52 AM,45.0,35.1,68,29.99,10.0,North,3.5,-,N/A,,Clear,360,2013-10-11 09:52:00
3:52 AM,44.1,35.1,71,29.99,10.0,NNE,3.5,-,N/A,,Clear,30,2013-10-11 10:52:00
4:52 AM,43.0,33.1,68,30.00,10.0,NE,4.6,-,N/A,,Clear,50,2013-10-11 11:52:00
5:52 AM,44.1,32.0,63,30.01,10.0,NE,3.5,-,N/A,,Clear,50,2013-10-11 12:52:00
6:52 AM,45.0,28.9,53,30.03,10.0,North,4.6,-,N/A,,Clear,360,2013-10-11 13:52:00
7:52 AM,46.0,28.0,50,30.04,10.0,Calm,Calm,-,N/A,,Clear,0,2013-10-11 14:52:00
8:52 AM,48.9,30.9,50,30.04,10.0,Calm,Calm,-,N/A,,Clear,0,2013-10-11 15:52:00
9:52 AM,50.0,30.0,46,30.04,10.0,WNW,4.6,-,N/A,,Clear,290,2013-10-11 16:52:00
10:52 AM,51.1,30.9,46,30.05,10.0,WSW,4.6,-,N/A,,Clear,250,2013-10-11 17:52:00
11:52 AM,54.0,33.1,45,30.03,10.0,Variable,3.5,-,N/A,,Clear,0,2013-10-11 18:52:00
12:52 PM,55.0,33.1,43,30.01,10.0,Variable,4.6,-,N/A,,Clear,0,2013-10-11 19:52:00
1:52 PM,55.9,35.1,45,29.99,10.0,Variable,5.8,-,N/A,,Clear,0,2013-10-11 20:52:00
2:52 PM,55.9,35.1,45,29.99,10.0,West,6.9,-,N/A,,Clear,260,2013-10-11 21:52:00
3:52 PM,55.0,35.1,47,29.99,10.0,South,8.1,-,N/A,,Clear,190,2013-10-11 22:52:00
4:52 PM,54.0,35.1,49,29.99,10.0,SW,4.6,-,N/A,,Clear,230,2013-10-11 23:52:00
5:52 PM,53.1,35.1,50,29.99,10.0,West,4.6,-,N/A,,Clear,260,2013-10-12 00:52:00
6:52 PM,50.0,35.1,57,30.00,10.0,Calm,Calm,-,N/A,,Clear,0,2013-10-12 01:52:00
7:52 PM,50.0,35.1,57,29.99,10.0,Calm,Calm,-,N/A,,Clear,0,2013-10-12 02:52:00
8:52 PM,48.9,34.0,56,29.99,10.0,North,3.5,-,N/A,,Clear,350,2013-10-12 03:52:00
9:52 PM,48.0,34.0,58,30.00,10.0,NE,4.6,-,N/A,,Clear,40,2013-10-12 04:52:00
10:52 PM,48.0,34.0,58,29.99,10.0,NE,4.6,-,N/A,,Clear,50,2013-10-12 05:52:00
11:52 PM,48.0,34.0,58,29.97,10.0,ENE,3.5,-,N/A,,Clear,60,2013-10-12 06:52:00